FENGYUN 1C DEB, 30326

Orbit data source: Space-Track

FENGYUN 1C DEB, 30326 is space debris in SSO originally from a launch on Mon, 10 May 1999 UTC launched from the Taiyaun Space Center, China (TSC). Fengyun 1C debris stems from the Chinese weather satellite Fengyun-1C, which was intentionally destroyed by a Chinese anti-satellite missile in 2007. This event dramatically increased the amount of space debris, with thousands of trackable fragments posing hazards to satellites and human spaceflight. The Fengyun 1C debris cloud has become a focal point in discussions about space sustainability and the need for international regulations to prevent the creation of new debris.

Loading next visibility...
Identifier
30326, 1999-025AAM
Orbit
SSO
Last TLE update
13 hours ago
Origin
Manufacturer
Unknown
Mission
Spacecraft
Bus & Motor
Unknown
Mass
Unknown
Launch date (UTC)
1999-05-10 (26 years ago)
Launch vehicle
Unknown
Launch site
Taiyaun Space Center, China (TSC)
Object type
Payload
Rocket body
Debris
Shape & HBR
Unknown
Radar Cross Section
Small (<0.1 m²)

Expand to show TLE details & history

TLE from 13 hours ago
0 FENGYUN 1C DEB
1 30326U 99025AAM 25191.58284383  .00000090  00000-0  10415-3 0  9991
2 30326  98.6709  90.6109 0142988  92.8986 268.8546 13.85399108933072
Epoch: 2025-07-10T13:59Z
TLE epoch observation values (Epoch: 2025-07-10T13:59:17.706Z)
Latitude
0.00003°
Longitude
-47.95993°
Altitude
951.258 km
Speed
7.374 km/s
True Right ascension
06h 02m 26s
True Declination
0° 00' 00"
Sunlit
Object was in daylight at epoch
Visualization orbit readout
Latitude
4.45075°
Longitude
133.21637°
Altitude
934.739 km
Speed
7.391 km/s
Apparent Right ascension
20h 55m 20s
Apparent Declination
-34° 54' 55"
Sunlit
Object is in full shadow
Visualization observer readout
Local Sidereal Time
15:13:37
Azimuth
120.471° SE
Elevation
-18.491°
Doppler factor
1
Orbital elements
Apogee altitude
1,046.671 km
Perigee altitude
837.332 km
Semi-major axis
7,320.138 km
Eccentricity
0.0143
Inclination
98.6709°
RAAN
90.6109°
Arg. of periapsis
92.8986°
True anomaly
Unknown
Mean anomaly
268.8546°
Eccentric anomaly
Unknown
Mean motion
3.46549 °/min
Orbital period
103.88 mins
BSTAR
0.00010415
Loading maneuver chart data...
Loading SW <> Apogee altitude chart data...
Loading historical data...
Loading historical data...
Loading historical data...
Loading historical data...
Loading historical data...
Loading historical data...
Loading historical data...

FENGYUN 1C DEB Visibility forecast

Observer location: undefined°, undefined°

Span
Click to sort rows by Start time (UTC) header in descending order
Start Az.
Max El. time (UTC)
Max El. Az.
Max El.
End time (UTC)
End Az.
10 mins2025-07-11 06:09:58.614Z14.513° NNE2025-07-11 06:14:58.614Z165.669° S44.761°2025-07-11 06:19:58.614Z193.462° SSW
7 mins2025-07-11 16:08:58.614Z106.831° ESE2025-07-11 16:11:58.614Z65.56° ENE22.777°2025-07-11 16:15:58.614Z15.073° NNE
8 mins2025-07-11 17:50:58.614Z199.696° SSW2025-07-11 17:53:58.614Z248.514° W34.297°2025-07-11 17:58:58.614Z329.87° NNW
|